EW4907 Weather Reports


Display with metric or nautical units.
time (UTC)temp
F
wind
direction
speed
MPH
gust
MPH
rain 1hr
in
rain 24hr
in
rain mn
in
humidity
%
barometer
mb
20260507151552 57 24 7.0 19.0 0.00 0.00 0.00 89 1019.0
20260507150052 57 332 8.0 19.0 0.00 0.00 0.00 88 1018.9
20260507144550 56 340 8.0 17.0 0.00 0.00 0.00 89 1019.0
20260507143052 56 43 6.0 15.0 0.00 0.00 0.00 89 1019.1
20260507141552 56 10 5.0 11.0 0.00 0.00 0.00 89 1019.6
20260507140045 56 313 9.0 15.0 0.00 0.00 0.00 90 1018.7
20260507134552 56 44 5.0 13.0 0.00 0.00 0.00 91 1019.0
20260507133040 56 22 10.0 17.0 0.00 0.00 0.00 91 1018.6
20260507131540 56 10 7.0 17.0 0.00 0.00 0.00 90 1017.9
20260507130036 56 46 8.0 22.0 0.00 0.00 0.00 90 1018.1
20260507124535 56 323 8.0 18.0 0.00 0.00 0.00 89 1018.4
20260507123035 56 25 7.0 17.0 0.00 0.00 0.00 89 1017.9
20260507121529 56 30 10.0 16.0 0.00 0.00 0.00 89 1017.8
20260507120025 56 46 9.0 17.0 0.00 0.00 0.00 89 1017.3
20260507114527 57 58 8.0 18.0 0.00 0.00 0.00 89 1017.1
20260507113023 57 9 6.0 13.0 0.00 0.00 0.00 89 1017.0
20260507111523 57 6 7.0 15.0 0.00 0.00 0.00 88 1017.0
20260507110017 57 323 7.0 20.0 0.00 0.00 0.00 88 1017.0
20260507104514 57 19 11.0 24.0 0.00 0.00 0.00 88 1016.8
20260507103011 58 304 8.0 18.0 0.00 0.00 0.00 87 1016.6
20260507101517 58 49 4.0 15.0 0.00 0.00 0.00 87 1016.4
20260507100006 58 15 5.0 13.0 0.00 0.00 0.00 87 1016.4
20260507094504 58 15 7.0 14.0 0.00 0.00 0.00 87 1015.8
20260507093002 58 337 6.0 12.0 0.00 0.00 0.00 86 1016.0
20260507091641 58 340 5.0 11.0 0.00 0.00 0.00 86 1016.0
20260507090107 58 40 6.0 11.0 0.00 0.00 0.00 86 1016.1
20260507084558 58 52 3.0 8.0 0.00 0.00 0.00 86 1016.0
20260507083056 58 58 1.0 7.0 0.00 0.00 0.00 86 1015.8
20260507081556 58 11 3.0 7.0 0.00 0.00 0.00 85 1015.9
20260507080054 58 16 3.0 11.0 0.00 0.00 0.00 85 1015.5
20260507074553 58 37 3.0 8.0 0.00 0.00 0.00 84 1015.6
20260507073051 58 53 4.0 9.0 0.00 0.00 0.00 84 1015.4
20260507071554 59 53 4.0 10.0 0.00 0.00 0.00 85 1015.6
20260507070059 59 50 4.0 9.0 0.00 0.00 0.00 85 1015.4
20260507064546 59 56 2.0 9.0 0.00 0.00 0.00 85 1015.7
20260507063044 59 56 2.0 10.0 0.00 0.00 0.00 84 1015.5
20260507061543 59 37 5.0 11.0 0.00 0.00 0.00 84 1015.1
20260507060053 59 341 4.0 11.0 0.00 0.00 0.00 84 1015.5
20260507054543 59 41 7.0 14.0 0.00 0.00 0.00 84 1015.0
20260507053048 59 56 3.0 9.0 0.00 0.00 0.00 84 1015.4
20260507051541 59 46 7.0 14.0 0.00 0.00 0.00 84 1015.1
20260507050040 60 56 4.0 13.0 0.00 0.00 0.00 84 1014.9
20260507044532 60 38 6.0 15.0 0.00 0.00 0.00 84 1015.0
20260507043031 60 21 6.0 14.0 0.00 0.00 0.00 84 1014.9
20260507041531 60 36 6.0 15.0 0.00 0.00 0.00 84 1015.2
20260507040025 60 23 5.0 13.0 0.00 0.00 0.00 84 1014.5
20260507034542 60 22 6.0 14.0 0.00 0.00 0.00 84 1014.8
20260507033021 61 352 6.0 14.0 0.00 0.00 0.00 84 1014.6
20260507031519 61 338 8.0 17.0 0.00 0.00 0.00 84 1014.7
20260507030019 61 351 7.0 13.0 0.00 0.00 0.00 84 1014.6
20260507024528 61 343 6.0 11.0 0.00 0.00 0.00 85 1014.3
20260507023013 61 341 5.0 14.0 0.00 0.00 0.00 84 1014.3
20260507021509 61 355 6.0 11.0 0.00 0.00 0.00 84 1014.0
20260507020006 61 323 2.0 10.0 0.00 0.00 0.00 84 1013.7
20260507014506 61 323 3.0 10.0 0.00 0.00 0.00 84 1013.4
20260507013000 61 34 4.0 13.0 0.00 0.00 0.00 83 1013.2
20260507011557 61 26 4.0 8.0 0.00 0.00 0.00 83 1012.9
20260507010111 61 319 4.0 13.0 0.00 0.00 0.00 83 1012.9
20260507004553 61 347 7.0 14.0 0.00 0.00 0.00 83 1012.6
20260507003050 61 314 6.0 15.0 0.00 0.00 0.00 82 1012.3
20260507001556 61 353 7.0 18.0 0.00 0.00 0.00 82 1012.3
20260507000051 61 21 6.0 16.0 0.00 0.00 0.00 82 1012.1
20260506234548 61 301 7.0 15.0 0.00 0.00 0.00 81 1012.1
20260506233057 61 328 8.0 18.0 0.00 0.00 0.00 82 1012.1
20260506231545 62 342 5.0 15.0 0.00 0.00 0.00 81 1011.8
20260506230046 62 352 7.0 19.0 0.00 0.00 0.00 81 1011.9
20260506224543 62 344 10.0 19.0 0.00 0.00 0.00 80 1011.8
20260506223044 63 338 5.0 20.0 0.00 0.00 0.00 80 1011.7
20260506221545 63 45 8.0 16.0 0.00 0.00 0.00 79 1011.3
20260506220045 63 335 8.0 20.0 0.00 0.00 0.00 78 1011.6
20260506214533 64 331 7.0 22.0 0.00 0.00 0.00 78 1011.5
20260506213032 65 1 10.0 19.0 0.00 0.00 0.00 77 1011.4
20260506211534 67 307 10.0 20.0 0.00 0.00 0.00 75 1011.2
20260506210030 68 63 8.0 20.0 0.00 0.00 0.00 74 1011.1
20260506204529 68 349 12.0 18.0 0.00 0.00 0.00 76 1011.2
20260506203028 69 340 13.0 20.0 0.00 0.00 0.00 76 1011.6
20260506201528 69 306 10.0 21.0 0.00 0.00 0.00 78 1011.4
20260506200026 70 342 11.0 22.0 0.00 0.00 0.00 76 1011.3
20260506194525 70 331 11.0 19.0 0.00 0.00 0.00 78 1011.1
20260506193031 72 331 11.0 19.0 0.00 0.00 0.00 76 1010.9
20260506191524 77 8 8.0 13.0 0.00 0.00 0.00 72 1010.8
20260506190024 77 3 4.0 9.0 0.00 0.00 0.00 74 1011.2
20260506184525 77 310 3.0 10.0 0.00 0.00 0.00 74 1011.1
20260506183022 77 113 3.0 6.0 0.00 0.00 0.00 75 1010.9
20260506181517 75 13 4.0 8.0 0.00 0.00 0.00 76 1011.1
20260506180017 74 121 1.0 7.0 0.00 0.00 0.00 78 1011.0
20260506174515 71 45 2.0 9.0 0.00 0.00 0.00 81 1011.2
20260506173015 70 88 3.0 9.0 0.00 0.00 0.00 81 1011.1
20260506171513 69 64 3.0 9.0 0.00 0.00 0.00 81 1011.4
20260506170013 68 53 6.0 12.0 0.00 0.00 0.00 82 1011.3
20260506164512 66 280 4.0 11.0 0.00 0.00 0.00 85 1011.7
20260506163013 64 39 7.0 17.0 0.00 0.00 0.00 87 1011.9
20260506161507 66 323 12.0 22.0 0.00 0.00 0.00 85 1012.2
20260506160001 72 1 10.0 17.0 0.00 0.00 0.00 81 1012.1
20260506154602 75 96 2.0 5.0 0.00 0.00 0.00 87 1011.7
20260506153058 75 94 0.0 3.0 0.00 0.00 0.00 88 1011.4